• MPC Preparation (Info)

  • MPEC 2019-N110 : 2019 NW3

    The following Minor Planet Electronic Circular may be linked-to from your own Web pages, but must not otherwise be redistributed electronically.

    A form allowing access to any MPEC is at the bottom of this page.


    Read MPEC 2019-N109 Read MPEC 2019-N111


    M.P.E.C. 2019-N110                                Issued 2019 July 8, 16:35 UT  
    
         The Minor Planet Electronic Circulars contain information on unusual
             minor planets and routine data on comets.  They are published
        on behalf of Division F of the International Astronomical Union by the
              Minor Planet Center, Smithsonian Astrophysical Observatory,
                              Cambridge, MA 02138, U.S.A.
    
                 Prepared using the Tamkin Foundation Computer Network
    
                                  MPC@CFA.HARVARD.EDU
                URL https://www.minorplanetcenter.net/    ISSN 1523-6714
    
                                    2019 NW3                                 
    
    Observations:
         K19N03W  C2019 07 05.48038818 18 16.549+32 03 47.47               VEN110F51
         K19N03W* C2019 07 05.49184 18 18 13.515+32 03 06.86         22.2 wUEN110F51
         K19N03W  C2019 07 05.50329 18 18 10.448+32 02 26.37         22.1 wUEN110F51
         K19N03W KC2019 07 05.92773118 16 24.52 +31 37 21.6          22.0 GVEN110L01
         K19N03W KC2019 07 05.93087918 16 23.73 +31 37 09.4          21.7 GVEN110L01
         K19N03W KC2019 07 05.93402918 16 22.81 +31 36 59.5          21.9 GVEN110L01
         K19N03W pC2019 07 05.93679318 16 22.14 +31 36 49.7          22.1 GVEN110L01
         K19N03W pC2019 07 05.94033918 16 21.20 +31 36 35.4          21.9 GVEN110L01
         K19N03W KC2019 07 05.94389018 16 20.26 +31 36 23.3          22.1 GVEN110L01
         K19N03W KC2019 07 05.94941018 16 18.83 +31 36 03.8          22.0 GVEN110L01
         K19N03W KC2019 07 08.18508618 06 55.97 +29 15 52.1          22.0 VuEN110H21
         K19N03W KC2019 07 08.19117018 06 54.37 +29 15 28.8          22.1 VuEN110H21
         K19N03W KC2019 07 08.19684518 06 52.93 +29 15 05.8          22.0 VuEN110H21
    
    Observer details:
    F51 Pan-STARRS 1, Haleakala.  Observers J. Bulger, K. Chambers, T. Lowe,
        E. Magnier, A. Schultz, M. Willman.  Measurers S. Chastel, M. Huber,
        Y. Ramanjooloo, R. Wainscoat, R. Weryk, K. Chambers, T. de Boer, L. Denneau,
        J. Fairlamb, H. Flewelling, C.-C. Lin, E. Magnier.  
        1.8-m Ritchey-Chretien + CCD.
    H21 Astronomical Research Observatory, Westfield.  Observer R. Holmes.  
        Measurers S. Foglia, L. Buzzi, T. Linder, R. Holmes.  
        1.3-m f/4.0 astrograph + CCD.
    L01 Visnjan Observatory, Tican.  Observer K. Korlevic.  
        1.0-m f/2.9 reflector + CCD.
    
    Orbital elements:
    2019 NW3                                                 Earth MOID = 0.1052 AU
    Epoch 2019 Apr. 27.0 TT = JDT 2458600.5                 MPC
    M  99.98463              (2000.0)            P               Q
    n   1.10955018     Peri.  334.91428     -0.23682518     -0.92495527
    a   0.9240697      Node   127.34718     +0.94249757     -0.29299325
    e   0.2653312      Incl.   21.95889     +0.23582232     +0.24210062
    P   0.89           H   23.2           G   0.15           U   9
    Residuals in seconds of arc
    190705 F51  0.4-  0.2+    190705 L01  0.7-  0.7+    190708 H21  0.4-  0.3-
    190705 F51  0.1+  0.0     190705 L01  0.1+  0.7+    190708 H21  0.3-  0.5+
    190705 F51  0.2+  0.0     190705 L01  0.2+  1.0-    190708 H21  0.5+  0.1-
    190705 L01  0.3-  0.4+    190705 L01  0.2+  0.4-
    190705 L01  0.3+  0.6-    190705 L01  0.7+  0.3-
    
    Ephemeris:
    2019 NW3                 a,e,i = 0.92, 0.27, 22                  q = 0.6789
    Date    TT    R. A. (2000) Decl.     Delta      r    Elong.  Phase     V
    2019 06 08    19 52 52.7 +43 24 57   0.3445  1.1433   103.1    59.8    23.3
    ...
    2019 06 23    19 08 41.7 +40 23 50   0.2836  1.1627   114.4    52.7    22.7
    ...
    2019 07 01    18 37 08.7 +35 52 42   0.2539  1.1678   121.0    48.3    22.4
    ...
    2019 07 07    18 11 53.7 +30 32 16   0.2356  1.1692   125.4    45.1    22.1
    2019 07 08    18 07 42.3 +29 28 13   0.2331  1.1693   126.1    44.6    22.1
    2019 07 09    18 03 32.6 +28 21 11   0.2306  1.1692   126.7    44.2    22.1
    ...
    2019 07 15    17 39 36.5 +20 40 18   0.2199  1.1679   129.2    42.4    21.9
    ...
    2019 07 23    17 12 06.1 +08 34 26   0.2171  1.1629   128.2    43.4    21.9
    ...
    2019 08 07    16 38 29.2 -13 41 53   0.2474  1.1437   115.7    53.0    22.4
    
    A. U. Tomatic                (C) Copyright 2019 MPC           M.P.E.C. 2019-N110
    


    Read MPEC 2019-N109 Read MPEC 2019-N111


    MPEC number:

    Enter an MPEC number in one of the following forms:

    • 1997-B01 (the full form)
    • J97B01 (the packed version of the full form)
    • B01 (the abbreviated form)